User: anonymous   Login
Location: Indian Springs
(36.5700°N, 115.6700°W)
Time: 02:21:44
(UTC-08:00)
Language:

Cosmos 2278 Rocket - Orbit

View from above orbital plane
View from above orbital plane
View from above satellite
View from above satellite

Ground track
Ground track

The orbit data is extracted from the following two-line orbital elements,

1 23088U 94023B   15025.93911806  .00000058  00000-0  55029-4 0  1269
2 23088 071.0010 314.8264 0004434 319.0927 107.4829 14.14599015 72050
Epoch (UTC): 25 January 2015 22:32:19
Eccentricity: 0.0004434
inclination: 71.0010°
perigee height: 840 km
apogee height: 847 km
right ascension of ascending node: 314.8264°
argument of perigee: 319.0927°
revolutions per day: 14.14599015
mean anomaly at epoch: 107.4829°
orbit number at epoch: 7205

The dashed part of the orbit path shows where the satellite is in the earth's shadow,  

DLR